User: anonymous   Login
Location: Unspecified
(0.0000°N, 0.0000°E)
Time: 17:32:26
(UTC+01:00)
Language:

Cosmos 1892 Rocket - Orbit

View from above orbital plane
View from above orbital plane
View from above satellite
View from above satellite

Ground track
Ground track

The orbit data is extracted from the following two-line orbital elements,

1 18422U 87088B   16340.15814473  .00000080  00000-0  69295-5 0  9999
2 18422  82.5111 358.6856 0019634   2.9925  61.0066 14.82900127573062
Epoch (UTC): 05 December 2016 03:47:43
Eccentricity: 0.0019634
inclination: 82.5111°
perigee height: 606 km
apogee height: 634 km
right ascension of ascending node: 358.6856°
argument of perigee: 2.9925°
revolutions per day: 14.82900127
mean anomaly at epoch: 61.0066°
orbit number at epoch: 57306

The dashed part of the orbit path shows where the satellite is in the earth's shadow,  

DLR